Tracking 28790 objects as of 19-Apr-2024
HD Live streaming from Space Station
objects crossing your sky now

FALCON 9 R/B

Track FALCON 9 R/B now!
10-day predictions


NORAD ID: 44869
Int'l Code: 2019-091B
Perigee: 303.9 km
Apogee: 19,284.5 km
Inclination: 26.9 °
Period: 340.9 minutes
Semi major axis: 16165 km
RCS: Unknown
Launch date: December 17, 2019
Source: United States (US)
Launch site: AIR FORCE EASTERN TEST RANGE (AFETR)

Note: This is a ROCKET BODY
Your satellite tracking list
Your tracking list is empty




NASA's NSSDC Master Catalog

Two Line Element Set (TLE):
1 44869U 19091B   24109.39330306  .00007411  00000-0  18141-2 0  9994
2 44869  26.8944 127.8800 5870838  73.6595 340.6930  4.22407087 65297
Source of the keplerian elements: AFSPC